This is the latest recevied weather packets stored in our database for station/object IK0OZB-10. If no packets are shown the sender has not sent any weather packets the latest 10 day(s).
| Time | Temp. | Humidity | Pressure | Rain* | Wind** | Luminosity | Snow |
|---|---|---|---|---|---|---|---|
| 1777622398 | 17.22° C | 53% | 1021.5 hPa | - | - | - | - |
| 1777621498 | 17.78° C | 61% | 1021.4 hPa | - | - | - | - |
| 1777620597 | 17.78° C | 61% | 1021.2 hPa | - | - | - | - |
| 1777619697 | 17.22° C | 55% | 1021.3 hPa | - | - | - | - |
| 1777618797 | 17.22° C | 58% | 1021.3 hPa | - | - | - | - |
| 1777617897 | 16.67° C | 55% | 1021.2 hPa | - | - | - | - |
| 1777616997 | 16.11° C | 56% | 1021.1 hPa | - | - | - | - |
| 1777616097 | 16.11° C | 63% | 1021 hPa | - | - | - | - |
| 1777615197 | 16.11° C | 59% | 1021 hPa | - | - | - | - |
| 1777614296 | 16.11° C | 58% | 1020.9 hPa | - | - | - | - |
| 1777613395 | 15.56° C | 57% | 1020.8 hPa | - | - | - | - |
| 1777612495 | 15.56° C | 57% | 1020.7 hPa | - | - | - | - |
| 1777611595 | 15.56° C | 67% | 1020.6 hPa | - | - | - | - |
| 1777610695 | 15° C | 69% | 1020.5 hPa | - | - | - | - |
| 1777609795 | 15° C | 71% | 1020.4 hPa | - | - | - | - |
| 1777608895 | 15° C | 73% | 1020.2 hPa | - | - | - | - |
| 1777607995 | 15° C | 71% | 1020.1 hPa | - | - | - | - |
| 1777607095 | 15° C | 67% | 1020 hPa | - | - | - | - |
| 1777606194 | 15.56° C | 70% | 1020.1 hPa | - | - | - | - |
| 1777605294 | 15.56° C | 75% | 1020.2 hPa | - | - | - | - |
| 1777604394 | 15.56° C | 76% | 1020.1 hPa | - | - | - | - |
| 1777603494 | 15.56° C | 78% | 1020.2 hPa | - | - | - | - |
| 1777602594 | 15.56° C | 77% | 1020.3 hPa | - | - | - | - |
| 1777601694 | 15.56° C | 77% | 1020.2 hPa | - | - | - | - |
| 1777600794 | 15.56° C | 77% | 1020.2 hPa | - | - | - | - |
* Rain since midnight (hover to see other rain measurements)
** Current wind speed in m/s (hover to see current wind gust speed)